This is the latest recevied weather packets stored in our database for station/object NE8U. If no packets are shown the sender has not sent any weather packets the latest 10 day(s).
| Time | Temp. | Humidity | Pressure | Rain* | Wind** | Luminosity | Snow |
|---|---|---|---|---|---|---|---|
| 1777591925 | 30° C | 15% | 1006.7 hPa | 0 mm | - | 184 W/m² | - |
| 1777591621 | 30° C | 14% | 1006.7 hPa | 0 mm | - | 188 W/m² | - |
| 1777591317 | 30° C | 14% | 1006.7 hPa | 0 mm | - | 197 W/m² | - |
| 1777591013 | 30° C | 13% | 1006.8 hPa | 0 mm | - | 174 W/m² | - |
| 1777590708 | 30° C | 13% | 1006.9 hPa | 0 mm | - | 180 W/m² | - |
| 1777590405 | 30.56° C | 13% | 1006.8 hPa | 0 mm | - | 202 W/m² | - |
| 1777590102 | 30.56° C | 13% | 1006.9 hPa | 0 mm | - | 235 W/m² | - |
| 1777589798 | 31.11° C | 13% | 1007.1 hPa | 0 mm | - | 242 W/m² | - |
| 1777589498 | 30.56° C | 13% | 1006.8 hPa | 0 mm | - | 255 W/m² | - |
| 1777589192 | 31.11° C | 13% | 1006.9 hPa | 0 mm | - | 295 W/m² | - |
| 1777588889 | 30.56° C | 13% | 1006.9 hPa | 0 mm | - | 253 W/m² | - |
| 1777588585 | 31.67° C | 13% | 1007.1 hPa | 0 mm | - | 230 W/m² | - |
| 1777588280 | 33.33° C | 13% | 1007.1 hPa | 0 mm | - | 372 W/m² | - |
| 1777587976 | 32.78° C | 13% | 1007.1 hPa | 0 mm | - | 593 W/m² | - |
| 1777587672 | 33.33° C | 13% | 1007.3 hPa | 0 mm | - | 658 W/m² | - |
| 1777587366 | 32.22° C | 13% | 1007.3 hPa | 0 mm | - | 680 W/m² | - |
| 1777587062 | 31.11° C | 14% | 1007.4 hPa | 0 mm | - | 711 W/m² | - |
| 1777586758 | 31.11° C | 14% | 1007.7 hPa | 0 mm | - | 406 W/m² | - |
| 1777586454 | 31.67° C | 14% | 1007.7 hPa | 0 mm | - | 259 W/m² | - |
| 1777586149 | 32.22° C | 13% | 1007.8 hPa | 0 mm | - | 351 W/m² | - |
| 1777585847 | 31.11° C | 14% | 1007.9 hPa | 0 mm | - | 563 W/m² | - |
| 1777585547 | 31.11° C | 14% | 1008.1 hPa | 0 mm | - | 298 W/m² | - |
| 1777585243 | 30.56° C | 14% | 1008.2 hPa | 0 mm | - | 301 W/m² | - |
| 1777584938 | 31.11° C | 14% | 1008 hPa | 0 mm | - | 252 W/m² | - |
| 1777584635 | 31.67° C | 14% | 1008.2 hPa | 0 mm | - | 683 W/m² | - |
* Rain latest hour (hover to see other rain measurements)
** Current wind speed in m/s (hover to see current wind gust speed)